x

Tillamook, Or - 85 Nm Wnw Of Tillamook, Or (46089) Wave Buoy

6:50pm - Fri 1st Aug 2014 All times are PDT. -7 hours from GMT.

  • Sig Wave height 6.6ft
  • Swell Direction
  • Peak Period 7s
  • Average Period 5s
  • Wind
    16mph, 22mph gusts
  • Sea Temp 64°f
  • Air Temp 63°f
  • Sea Pressure 1017.5mb
  • Tillamook, Or - 85 Nm Wnw Of Tillamook, Or
  • Tillamook, Or - 85 Nm Wnw Of Tillamook, Or

More Historic Weather Station data

Upgrade to MSW Pro to gain access to the past 30 days of data for over 8000 Wavebouys and Weather Stations around the globe.

Join Pro

Comparision Forecast

View Surf forecast
   
Fri 08/01 6:50pm 6.5ft 7s 5s 16 22 mph 1017.5mb 64f 63f
5:50pm 6ft 7s 5s 16 25 mph 1017.7mb 64f 63f
4:50pm 6ft 7s 5s 18 22 mph 1018mb 64f 63f
3:50pm 6ft 7s 5s 16 22 mph 1018.3mb 64f 63f
2:50pm 5.5ft 7s 5s 18 25 mph 1018.7mb 64f 63f
1:50pm 6ft 7s 5s 16 22 mph 1019.3mb 64f 63f
12:50pm 6ft 7s 5s 16 22 mph 1019mb 64f 63f
11:50am 5.5ft 7s 5s 16 20 mph 1019.4mb 64f 63f
10:50am 5ft 7s 5s 16 22 mph 1019.4mb 64f 63f
9:50am 5.5ft 7s 5s 16 22 mph 1019.1mb 64f 62f
8:50am 5ft 6s 5s 16 25 mph 1019.3mb 64f 62f
7:50am 5ft 6s 5s 16 22 mph 1019.3mb 64f 63f
6:50am 5.5ft 7s 5s 16 20 mph 1019.4mb 64f 62f
5:50am 5ft 6s 5s 16 20 mph 1019.4mb 64f 63f
4:50am 5ft 6s 5s 16 20 mph 1019.3mb 64f 63f
3:50am 5ft 6s 5s 16 22 mph 1019.5mb 63f 63f
2:50am 5ft 6s 5s 16 20 mph 1019.5mb 63f 63f
1:50am 5ft 6s 5s 16 22 mph 1019.6mb 64f 63f
12:50am 5ft 6s 5s 16 20 mph 1019.9mb 64f 63f
Thu 07/31 11:50pm 5.5ft 6s 5s 16 20 mph 1019.8mb 64f 63f
10:50pm 6ft 6s 5s 16 22 mph 1019.4mb 64f 63f
9:50pm 5ft 6s 5s 18 22 mph 1019.8mb 64f 64f
8:50pm 5ft 5s 5s 16 20 mph 1019.5mb 64f 64f
7:50pm 5ft 5s 5s 18 22 mph 1019.2mb 64f 64f
6:50pm 5ft 5s 5s 18 25 mph 1019.4mb 64f 64f
5:50pm 4.5ft 5s 4s 18 25 mph 1019.9mb 64f 64f
4:50pm 4.5ft 5s 4s 16 22 mph 1020.3mb 64f 64f
3:50pm 3.5ft 5s 4s 16 22 mph 1020.8mb 64f 64f
2:50pm 3.5ft 5s 4s 16 20 mph 1021mb 64f 64f
1:50pm 3.5ft 5s 4s 16 20 mph 1021.3mb 64f 64f
12:50pm 3.5ft 5s 4s 16 20 mph 1021.6mb 63f 63f
11:50am 4ft 5s 4s 13 20 mph 1021.6mb 63f 63f
10:50am 4ft 4s 4s 13 20 mph 1021.5mb 63f 63f
9:50am 4ft 6s 4s 16 20 mph 1021.3mb 63f 63f
8:50am 4ft 6s 4s 16 20 mph 1021.5mb 63f 63f
7:50am 4ft 6s 4s 13 18 mph 1021.4mb 63f 63f
6:50am 4.5ft 6s 5s 13 20 mph 1021.2mb 63f 63f
5:50am 4.5ft 6s 4s 13 18 mph 1021.3mb 63f 63f
4:50am 4ft 5s 4s 13 18 mph 1021.3mb 63f 62f
3:50am 4ft 5s 4s 13 18 mph 1021.5mb 63f 62f
2:50am 4ft 6s 5s 13 16 mph 1021.5mb 63f 62f
1:50am 4ft 5s 5s 11 18 mph 1021.8mb 63f 63f
12:50am 4ft 5s 4s 13 18 mph 1021.9mb 63f 63f
Wed 07/30 11:50pm 4ft 6s 4s 13 18 mph 1021.9mb 63f 63f
10:50pm 4.5ft 5s 4s 13 18 mph 1022mb 63f 63f
9:50pm 4ft 5s 4s 13 18 mph 1022.1mb 63f 63f
8:50pm 4ft 5s 4s 16 22 mph 1021.6mb 63f 63f
7:50pm 4.5ft 5s 4s 16 20 mph 1021.3mb 63f 63f
6:50pm 4ft 5s 4s 16 20 mph 1021.2mb 63f 63f
5:50pm 3.5ft 5s 4s 16 20 mph 1021.8mb 63f 63f
4:50pm 3.5ft 5s 4s 13 18 mph 1022.1mb 63f 63f
3:50pm 3.5ft 5s 4s 13 20 mph 1022.6mb 63f 63f
2:50pm 3.5ft 4s 4s 13 18 mph 1022.7mb 63f 63f
1:50pm 3.5ft 5s 4s 11 16 mph 1023.1mb 63f 62f
12:50pm 3.5ft 5s 4s 11 16 mph 1023.2mb 63f 62f
11:50am 3.5ft 7s 4s 11 16 mph 1022.9mb 63f 62f
10:50am 3.5ft 4s 4s 11 13 mph 1023mb 63f 62f
9:50am 3ft 7s 4s 11 13 mph 1022.9mb 63f 62f
8:50am 3.5ft 5s 4s 9 11 mph 1023mb 62f 62f
7:50am 3.5ft 5s 4s 11 16 mph 1022.8mb 62f 62f
6:50am 3.5ft 5s 4s 11 16 mph 1022.7mb 62f 62f
5:50am 3.5ft 5s 4s 11 16 mph 1022.4mb 62f 62f
4:50am 3.5ft 5s 5s 11 16 mph 1022.2mb 63f 62f
3:50am 3.5ft 4s 4s 11 16 mph 1022mb 63f 62f
2:50am 3.5ft 7s 4s 11 16 mph 1022.2mb 63f 62f
1:50am 3.5ft 4s 4s 13 18 mph 1022.1mb 63f 62f
12:50am 3.5ft 4s 4s 11 16 mph 1022.2mb 63f 62f
Tue 07/29 11:50pm 3.5ft 7s 5s 11 16 mph 1022mb 63f 62f
10:50pm 3.5ft 7s 5s 11 16 mph 1022.3mb 63f 62f
9:50pm 3.5ft 7s 5s 13 20 mph 1022.2mb 63f 62f
8:50pm 3.5ft 7s 5s 11 16 mph 1022mb 63f 62f
7:50pm 3.5ft 8s 5s 11 13 mph 1021.9mb 63f 63f
6:50pm 3.5ft 8s 5s 11 16 mph 1022.1mb 63f 63f
5:50pm 3ft 7s 4s 11 18 mph 1022.2mb 63f 63f
4:50pm 3ft 8s 4s 13 16 mph 1022.4mb 63f 63f
3:50pm 3ft 7s 4s 11 16 mph 1022.8mb 63f 62f
2:50pm 3ft 8s 4s 11 16 mph 1023mb 63f 62f
1:50pm 3.5ft 8s 4s 11 13 mph 1023.1mb 63f 62f
12:50pm 3ft 5s 4s 11 16 mph 1023mb 63f 61f
11:50am 3ft 8s 4s 11 16 mph 1023.1mb 63f 62f
10:50am 2.5ft 8s 4s 11 16 mph 1023.1mb 63f 62f
9:50am 2.5ft 8s 4s 11 13 mph 1023.1mb 63f 62f
8:50am 3ft 7s 5s 11 16 mph 1022.8mb 63f 62f
7:50am 3ft 8s 5s 9 11 mph 1022.6mb 63f 62f
6:50am 3ft 8s 4s 11 16 mph 1022.5mb 63f 62f
5:50am 3.5ft 5s 4s 11 16 mph 1022.2mb 63f 62f
4:50am 3.5ft 5s 4s 11 16 mph 1022mb 63f 61f
3:50am 3.5ft 4s 4s 11 16 mph 1021.9mb 63f 60f